Location: *
(25.6860°S, 25.0236°E)
Time: 07:23:21
(UTC+00:00)

Daily predictions for brighter satellites

Satellite Brightness Start Highest point End
(mag) Time Altitude Azimuth Time Altitude Azimuth Time Altitude Azimuth
Cosmos 407 Rocket 3.5 16:52:15 10° S 16:57:29 70° ESE 17:02:42 10° NNE
Delta 198 3.7 16:55:40 10° WNW 16:59:48 64° N 17:04:35 10° E
Cosmos 1707 3.2 16:59:16 10° NNE 17:01:41 23° E 17:04:09 10° SE
Okean 1 4.0 16:58:16 10° NNW 17:01:43 53° W 17:05:15 10° S
CZ-4 R/B 4.4 16:58:17 10° SSE 17:02:14 55° E 17:06:07 10° N
Cosmos 1825 Rocket 3.8 16:59:43 10° S 17:04:05 78° W 17:08:26 10° N
Milstar 3 3.4 16:57:37 10° WNW 17:04:43 75° NNE 17:16:36 10° ESE
ARIANE 5 R/B 2.6 17:00:09 10° SSE 17:05:20 90° E 17:10:24 10° NNW
Cosmos 2369 Rocket 2.9 17:02:18 10° SSW 17:07:57 62° WNW 17:13:33 10° N
SAR-Lupe-4 4.1 17:06:06 10° SSE 17:09:26 36° E 17:12:43 10° NNE
Cosmos 1076 Rocket 3.4 17:06:31 10° S 17:10:50 81° E 17:15:03 10° N
Cosmos 1437 Rocket 4.5 17:08:16 10° NNW 17:11:26 34° W 17:14:40 10° SSW
Cosmos 2056 Rocket 4.4 17:06:17 10° NNW 17:11:32 57° WSW 17:16:47 10° S
Fermi 3.6 17:08:30 10° W 17:12:24 82° N 17:16:05 11° E
GPS 2-15 Rocket1 4.4 17:09:26 10° NW 17:13:29 28° NNE 17:17:25 11° ENE
Cosmos 1833 Rocket 3.3 17:12:38 10° NNE 17:17:33 32° ENE 17:22:31 10° SE
CZ-2D R/B 3.9 17:14:01 10° SSE 17:17:41 35° E 17:21:23 10° NNE
PSLV R/B 4.5 17:14:43 10° SE 17:18:07 24° E 17:21:26 10° NNE
Cosmos 1331 Rocket 4.1 17:14:46 10° N 17:19:46 50° ENE 17:24:48 10° SSE
Meteor 2-10 4.4 17:14:03 10° S 17:19:50 82° W 17:25:28 10° N
Cosmos 304 Rocket 3.7 17:16:24 10° SSW 17:21:12 77° ESE 17:25:56 10° NNE
Resurs 01 Rocket 2.5 17:19:11 10° SE 17:22:58 27° E 17:26:41 10° NNE
USA 59 Rocket 1.5 17:15:06 10° SSW 17:24:04 63° ESE 17:30:37 10° NE
USA 238 DEB 4.5 17:18:21 10° SW 17:24:12 46° WNW 17:29:45 10° N
USA 238 4.5 17:18:30 10° SW 17:24:22 46° WNW 17:29:54 10° N
Orbus 7S? 3.4 17:22:38 10° NNW 17:25:45 73° ENE 17:31:55 10° SE
Radarsat Rocket 4.4 17:20:56 10° SE 17:26:20 38° ENE 17:31:52 10° NNE
Centaur D-1A AC-31 0.7 17:24:56 10° WNW 17:28:03 59° NNE 17:30:28 17° E
SJ 16-02 1.2 17:24:53 10° S 17:29:09 68° ESE 17:33:23 10° NNE
Atlas Centaur 2 3.3 17:22:47 10° W 17:30:46 63° S 17:37:56 14° ESE
Cosmos 2251 Rocket 3.5 17:25:47 10° S 17:31:08 68° ESE 17:36:21 10° NNE
NOAA 6 4.3 17:28:51 10° SSE 17:33:47 43° E 17:38:39 10° N
Delta 142 3.9 17:31:03 10° WSW 17:37:09 84° S 17:40:21 22° E
Lacrosse 5 rocket 4.1 17:36:21 10° WSW 17:38:14 13° SW 17:40:08 10° SSW
Meteor 1-19 Rocket 4.4 17:36:21 10° NNE 17:41:47 52° E 17:47:26 10° SSE
Cosmos 371 Rocket 3.7 17:38:48 10° SSW 17:43:35 64° WNW 17:48:17 10° N
SWIFT 3.2 17:43:12 10° NW 17:45:47 21° N 17:46:13 21° NNE
Cosmos 1812 Rocket 3.5 17:43:38 10° N 17:47:53 60° E 17:52:13 10° SSE
Cosmos 2221 2.3 17:49:31 10° N 17:53:38 88° W 17:57:50 10° S
Meteor 1-27 Rocket 4.4 17:49:01 10° NNE 17:54:18 35° E 17:59:33 10° SSE
Cosmos 1842 2.7 17:51:21 10° N 17:54:35 83° W 17:57:51 10° S
CARTOSAT-1 3.9 17:56:45 10° S 18:00:57 63° WSW 18:05:05 10° NNW
Cosmos 1954 Rocket 4.1 17:57:41 10° SSW 18:02:52 78° WNW 18:08:01 10° N
Cosmos 1766 2.8 18:02:40 10° S 18:05:59 78° W 18:07:00 41° N
SJ-6B 3.4 18:04:16 10° SSE 18:06:26 35° SSE 18:06:26 35° SSE
ATLAS 2AS CENTAUR R/B 3.0 18:04:06 10° N 18:10:31 41° ENE 18:17:07 10° SE
Cosmos 1452 Rocket 4.0 18:09:02 10° NNW 18:14:11 60° WSW 18:19:24 10° S
Cosmos 1302 Rocket 3.8 18:12:23 10° N 18:17:32 76° ENE 18:22:46 10° SSE
OAO 1 4.5 18:13:24 10° WSW 18:18:55 80° NNW 18:20:14 53° NE
USA 307 4.4 18:17:34 10° SSW 18:19:34 21° S 18:19:34 21° S
Cosmos 1656 3.7 18:15:44 10° S 18:21:21 55° ESE 18:21:59 52° E
Meteor 1-10 Rocket 4.5 18:16:33 10° NNW 18:22:20 73° W 18:28:18 10° S
Meteor 1-11 Rocket 4.1 18:17:13 10° S 18:21:58 42° ESE 18:21:58 42° ESE
Cosmos 1536 4.1 18:19:30 10° SSW 18:22:56 36° W 18:25:45 14° NNW
Cosmos 968 Rocket 3.5 18:18:03 10° S 18:23:14 58° ESE 18:23:18 58° ESE
BlueWalker 3 3.2 18:25:04 10° SSW 18:27:12 31° SSW 18:27:12 31° SSW
COSMOS 2455 3.3 18:28:23 10° S 18:33:31 43° SE 18:33:31 43° SE
GOES 2 Rocket 3.5 18:37:36 10° W 18:41:43 59° W 18:41:43 59° W
SEDSat Delta rocket 3.7 18:39:21 10° WSW 18:43:02 53° WSW 18:43:02 53° WSW
Delta 198 4.1 18:39:49 10° W 18:43:37 60° WNW 18:43:37 60° WNW
Cosmos 332 Rocket 4.3 18:43:48 10° SSW 18:48:19 55° W 18:48:19 55° W
Cosmos 2360 4.3 18:46:42 10° SSW 18:51:49 71° SSW 18:51:49 71° SSW
ASC 2 Rocket 4.2 18:52:19 10° WNW 18:57:23 64° NNW 18:57:23 64° NNW
Cosmos 1553 Rocket 4.4 18:52:21 10° NNW 18:58:33 61° W 19:04:55 10° S
Resurs 01 Rocket 4.4 18:56:04 10° SSW 18:59:02 18° WSW 19:01:59 10° WNW
BREEZE-M DEB (TANK) 4.0 18:53:29 10° SW 19:03:09 50° S 19:03:09 50° S
USA 59 Rocket 3.4 19:06:42 10° WSW 19:11:58 19° W 19:16:21 10° NW
NOSS 3-1 (C) 4.2 19:07:22 10° SW 19:11:14 38° WSW 19:11:14 38° WSW
Atlas Centaur 2 3.0 19:12:09 10° WSW 19:19:51 71° SSW 19:19:51 71° SSW
Centaur D-1AR AC-40 3.3 19:09:45 10° W 19:19:35 48° NW 19:19:35 48° NW
Milstar 3 4.2 19:40:16 10° W 19:50:21 80° S 19:52:04 72° ESE
ATLAS 2AS CENTAUR R/B 4.3 19:55:24 10° WNW 20:01:25 30° SW 20:07:37 10° S
